This is the latest recevied weather packets stored in our database for station/object N7AWM. If no packets are shown the sender has not sent any weather packets the latest 10 day(s).
| Time | Temp. | Humidity | Pressure | Rain* | Wind** | Luminosity | Snow |
|---|---|---|---|---|---|---|---|
| 1777946882 | 26.11° C | 25% | 1001.9 hPa | 0 mm | - | - | - |
| 1777946042 | 26.67° C | 24% | 1001.9 hPa | 0 mm | - | - | - |
| 1777945202 | 26.67° C | 25% | 1001.8 hPa | 0 mm | - | - | - |
| 1777944362 | 26.67° C | 24% | 1001.9 hPa | 0 mm | - | - | - |
| 1777943522 | 27.22° C | 25% | 1002 hPa | 0 mm | - | - | - |
| 1777942683 | 26.67° C | 27% | 1001.9 hPa | 0 mm | - | - | - |
| 1777941843 | 27.78° C | 27% | 1001.8 hPa | 0 mm | - | - | - |
| 1777941003 | 28.89° C | 26% | 1001.7 hPa | 0 mm | - | - | - |
| 1777940163 | 28.89° C | 25% | 1001.8 hPa | 0 mm | - | - | - |
| 1777939323 | 28.33° C | 25% | 1001.8 hPa | 0 mm | - | - | - |
| 1777938483 | 28.89° C | 28% | 1001.7 hPa | 0 mm | - | - | - |
| 1777937643 | 28.89° C | 27% | 1001.8 hPa | 0 mm | - | - | - |
| 1777936803 | 28.33° C | 28% | 1001.9 hPa | 0 mm | - | - | - |
| 1777935963 | 28.33° C | 27% | 1002 hPa | 0 mm | - | - | - |
| 1777935123 | 27.78° C | 28% | 1002.2 hPa | 0 mm | - | - | - |
| 1777934283 | 28.33° C | 28% | 1002.3 hPa | 0 mm | - | - | - |
| 1777933443 | 28.33° C | 30% | 1002.5 hPa | 0 mm | - | - | - |
| 1777932603 | 27.78° C | 30% | 1002.7 hPa | 0 mm | - | - | - |
| 1777931763 | 27.78° C | 28% | 1002.9 hPa | 0 mm | - | - | - |
| 1777930923 | 27.22° C | 30% | 1003 hPa | 0 mm | - | - | - |
| 1777930083 | 27.22° C | 29% | 1003.2 hPa | 0 mm | - | - | - |
| 1777929244 | 27.22° C | 29% | 1003.4 hPa | 0 mm | - | - | - |
| 1777928404 | 27.22° C | 27% | 1003.6 hPa | 0 mm | - | - | - |
| 1777927564 | 26.67° C | 29% | 1003.8 hPa | 0 mm | - | - | - |
| 1777926724 | 26.67° C | 27% | 1003.9 hPa | 0 mm | - | - | - |
* Rain latest hour (hover to see other rain measurements)
** Current wind speed in m/s (hover to see current wind gust speed)